DHK1812 HAAB-WSSS

Flight info

Callsign DHK1812
Flight time N/A
Altitude 33000
Route NIDEG1A NIDEG UB535 TORBA T701 ULALI P751 RIGAM/N0489F350 P751 BBB/N0484F370 Q13 BEKUT N571 LAGOG/N0476F390 N571 GUNIP M630 NIREN Y511 TOPOR A464 ARAMA DCT TEBUN TEBUN1A
Aircraft A333/H-SDE3GHIJ2J3J5M1RVWXY/LB2D1

Departure

Time 2026-05-04 19:36
Airport Addis Ababa Bole International Airport (HAAB)

Arrival

Time N/A
Airport Singapore Changi Airport (WSSS)
Time Latitude Longitude Altitude Speed Heading
2026-05-04 19:09 8.97880 38.78433 7624 ft 0 kts 343°
2026-05-04 19:25 8.97876 38.78434 7626 ft 3 kts 344°
2026-05-04 19:25 8.97849 38.78440 7624 ft 4 kts 355°
2026-05-04 19:26 8.97823 38.78439 7624 ft 4 kts 22°
2026-05-04 19:26 8.97809 38.78427 7632 ft 2 kts 92°
2026-05-04 19:26 8.97809 38.78421 7631 ft 0 kts 94°
2026-05-04 19:29 8.97809 38.78423 7631 ft 2 kts 93°
2026-05-04 19:29 8.97809 38.78435 7628 ft 1 kts 93°
2026-05-04 19:30 8.97804 38.78454 7627 ft 6 kts 108°
2026-05-04 19:30 8.97763 38.78504 7623 ft 11 kts 130°
2026-05-04 19:30 8.97746 38.78568 7623 ft 8 kts 85°
2026-05-04 19:30 8.97760 38.78620 7623 ft 8 kts 71°
2026-05-04 19:31 8.97778 38.78675 7623 ft 9 kts 73°
2026-05-04 19:31 8.97785 38.78735 7623 ft 8 kts 110°
2026-05-04 19:31 8.97736 38.78768 7623 ft 10 kts 156°
2026-05-04 19:31 8.97666 38.78793 7622 ft 12 kts 163°
2026-05-04 19:32 8.97585 38.78806 7622 ft 12 kts 199°
2026-05-04 19:32 8.97545 38.78738 7622 ft 12 kts 253°
2026-05-04 19:32 8.97519 38.78652 7621 ft 13 kts 254°
2026-05-04 19:32 8.97492 38.78557 7620 ft 15 kts 253°
2026-05-04 19:33 8.97461 38.78452 7619 ft 16 kts 253°
2026-05-04 19:33 8.97429 38.78343 7619 ft 17 kts 255°
2026-05-04 19:33 8.97365 38.78276 7619 ft 12 kts 171°
2026-05-04 19:33 8.97323 38.78302 7625 ft 1 kts 143°
2026-05-04 19:34 8.97322 38.78303 7625 ft 1 kts 143°
2026-05-04 19:34 8.97306 38.78315 7628 ft 3 kts 142°
2026-05-04 19:34 8.97281 38.78336 7632 ft 7 kts 140°
2026-05-04 19:34 8.97250 38.78403 7635 ft 16 kts 87°
2026-05-04 19:35 8.97298 38.78608 7635 ft 50 kts 75°
2026-05-04 19:35 8.97441 38.79087 7631 ft 91 kts 73°
2026-05-04 19:35 8.97663 38.79830 7628 ft 128 kts 73°
2026-05-04 19:35 8.97951 38.80806 7622 ft 161 kts 73°
2026-05-04 19:36 8.98294 38.81989 7666 ft 186 kts 74°
2026-05-04 19:36 8.98622 38.83299 7931 ft 199 kts 77°
2026-05-04 19:36 8.98923 38.84692 8355 ft 206 kts 78°
2026-05-04 19:36 8.99244 38.86086 8934 ft 197 kts 75°
2026-05-04 19:37 8.99617 38.87399 9439 ft 196 kts 73°
2026-05-04 19:37 9.00008 38.88755 9588 ft 206 kts 74°
2026-05-04 19:37 9.00412 38.90192 9743 ft 218 kts 74°
2026-05-04 19:37 9.00833 38.91712 9893 ft 232 kts 75°
2026-05-04 19:38 9.01280 38.93348 10003 ft 251 kts 75°
2026-05-04 19:38 9.01750 38.95079 10167 ft 266 kts 74°
2026-05-04 19:38 9.02253 38.96934 10350 ft 281 kts 74°
2026-05-04 19:38 9.02781 38.98888 10526 ft 295 kts 74°
2026-05-04 19:39 9.03337 39.00942 10695 ft 310 kts 74°
2026-05-04 19:39 9.03917 39.03091 10846 ft 323 kts 74°
2026-05-04 19:39 9.04520 39.05325 11011 ft 336 kts 74°
2026-05-04 19:39 9.05146 39.07646 11132 ft 348 kts 74°
2026-05-04 19:40 9.05916 39.10000 11268 ft 359 kts 66°
2026-05-04 19:40 9.07196 39.12191 11469 ft 366 kts 51°
2026-05-04 19:40 9.09076 39.13916 11903 ft 367 kts 34°
2026-05-04 19:40 9.11302 39.15204 12227 ft 372 kts 28°
2026-05-04 19:41 9.13641 39.16381 12453 ft 378 kts 27°
2026-05-04 19:41 9.16020 39.17545 12874 ft 380 kts 27°
2026-05-04 19:41 9.18405 39.18711 13292 ft 381 kts 27°
2026-05-04 19:41 9.20790 39.19895 13721 ft 382 kts 28°
2026-05-04 19:42 9.23046 39.21319 14119 ft 382 kts 38°
2026-05-04 19:42 9.24978 39.23164 14419 ft 384 kts 50°
2026-05-04 19:42 9.26509 39.25393 14677 ft 388 kts 59°
2026-05-04 19:42 9.27850 39.27777 15000 ft 391 kts 60°
2026-05-04 19:43 9.29167 39.30190 15315 ft 393 kts 60°
2026-05-04 19:43 9.30493 39.32617 15646 ft 394 kts 60°
2026-05-04 19:43 9.31827 39.35052 15939 ft 397 kts 60°
2026-05-04 19:43 9.33172 39.37498 16313 ft 398 kts 60°
2026-05-04 19:44 9.34523 39.39953 16604 ft 400 kts 60°
2026-05-04 19:44 9.35881 39.42417 16913 ft 402 kts 60°
2026-05-04 19:44 9.37247 39.44894 17224 ft 404 kts 60°
2026-05-04 19:44 9.38620 39.47383 17532 ft 405 kts 60°
2026-05-04 19:45 9.39997 39.49880 17776 ft 408 kts 60°
2026-05-04 19:45 9.41384 39.52397 18078 ft 410 kts 60°
2026-05-04 19:45 9.42775 39.54921 18381 ft 412 kts 60°
2026-05-04 19:45 9.44176 39.57461 18625 ft 414 kts 60°
2026-05-04 19:46 9.45580 39.60010 18884 ft 415 kts 60°
2026-05-04 19:46 9.46974 39.62538 19082 ft 418 kts 60°
2026-05-04 19:46 9.48388 39.65106 19365 ft 418 kts 60°
2026-05-04 19:46 9.49811 39.67690 19509 ft 421 kts 60°
2026-05-04 19:47 9.51238 39.70283 19757 ft 422 kts 60°
2026-05-04 19:47 9.52672 39.72888 19970 ft 425 kts 60°
2026-05-04 19:47 9.54110 39.75499 20271 ft 424 kts 60°
2026-05-04 19:47 9.55554 39.78123 20391 ft 428 kts 60°
2026-05-04 19:48 9.57008 39.80755 20683 ft 428 kts 60°
2026-05-04 19:48 9.58467 39.83399 20848 ft 432 kts 60°
2026-05-04 19:48 9.59936 39.86063 20979 ft 434 kts 61°
2026-05-04 19:48 9.61411 39.88742 21171 ft 436 kts 61°
2026-05-04 19:49 9.62888 39.91428 21431 ft 437 kts 61°
2026-05-04 19:49 9.64369 39.94122 21607 ft 439 kts 61°
2026-05-04 19:49 9.65856 39.96829 21820 ft 440 kts 61°
2026-05-04 19:49 9.67347 39.99543 22027 ft 442 kts 61°
2026-05-04 19:50 9.68846 40.02273 22235 ft 443 kts 61°
2026-05-04 19:50 9.70348 40.05008 22390 ft 445 kts 61°
2026-05-04 19:50 9.71859 40.07762 22566 ft 447 kts 61°
2026-05-04 19:50 9.73373 40.10520 22793 ft 449 kts 61°
2026-05-04 19:51 9.74890 40.13286 22949 ft 450 kts 61°
2026-05-04 19:51 9.76414 40.16064 23163 ft 452 kts 61°
2026-05-04 19:51 9.77944 40.18855 23337 ft 453 kts 61°
2026-05-04 19:51 9.79476 40.21649 23541 ft 455 kts 61°
2026-05-04 19:52 9.81018 40.24463 23694 ft 456 kts 61°
2026-05-04 19:52 9.82543 40.27240 23842 ft 458 kts 60°
2026-05-04 19:52 9.84239 40.29988 23953 ft 460 kts 55°
2026-05-04 19:52 9.86069 40.32652 24131 ft 461 kts 54°
2026-05-04 19:53 9.87926 40.35304 24301 ft 462 kts 54°
2026-05-04 19:53 9.89793 40.37964 24465 ft 464 kts 54°
2026-05-04 19:53 9.91666 40.40634 24639 ft 464 kts 54°
2026-05-04 19:53 9.93540 40.43310 24786 ft 466 kts 54°
2026-05-04 19:54 9.95419 40.45994 24969 ft 467 kts 54°
2026-05-04 19:54 9.97301 40.48684 25100 ft 469 kts 54°
2026-05-04 19:54 9.99196 40.51394 25228 ft 471 kts 54°
2026-05-04 19:54 10.01091 40.54104 25356 ft 472 kts 54°
2026-05-04 19:55 10.02995 40.56829 25529 ft 473 kts 54°
2026-05-04 19:55 10.04900 40.59555 25673 ft 474 kts 54°
2026-05-04 19:55 10.06789 40.62260 25807 ft 476 kts 54°
2026-05-04 19:55 10.08709 40.65009 25943 ft 478 kts 54°
2026-05-04 19:56 10.10633 40.67765 26087 ft 479 kts 54°
2026-05-04 19:56 10.12562 40.70528 26242 ft 480 kts 54°
2026-05-04 19:56 10.14498 40.73302 26410 ft 481 kts 54°
2026-05-04 19:56 10.16437 40.76080 26554 ft 483 kts 54°
2026-05-04 19:57 10.18380 40.78866 26707 ft 484 kts 54°
2026-05-04 19:57 10.20327 40.81658 26856 ft 485 kts 54°
2026-05-04 19:57 10.22280 40.84459 26986 ft 486 kts 54°
2026-05-04 19:57 10.24235 40.87263 27140 ft 488 kts 54°
2026-05-04 19:58 10.26198 40.90081 27288 ft 489 kts 54°
2026-05-04 19:58 10.28165 40.92904 27451 ft 489 kts 54°
2026-05-04 19:58 10.30110 40.95696 27584 ft 491 kts 54°
2026-05-04 19:58 10.32086 40.98533 27710 ft 492 kts 54°
2026-05-04 19:59 10.34065 41.01376 27840 ft 494 kts 54°
2026-05-04 19:59 10.36048 41.04226 27981 ft 495 kts 54°
2026-05-04 19:59 10.38038 41.07085 28099 ft 496 kts 54°
2026-05-04 19:59 10.40031 41.09950 28248 ft 497 kts 54°
2026-05-04 20:00 10.42028 41.12823 28366 ft 498 kts 54°
2026-05-04 20:00 10.43351 41.14725 28470 ft 499 kts 54°
2026-05-04 20:00 10.46032 41.18583 28687 ft 499 kts 54°
2026-05-04 20:00 10.47356 41.20487 28796 ft 499 kts 54°
2026-05-04 20:01 10.49360 41.23372 28985 ft 499 kts 54°
2026-05-04 20:01 10.51363 41.26255 29147 ft 499 kts 54°
2026-05-04 20:01 10.53367 41.29141 29295 ft 500 kts 54°
2026-05-04 20:01 10.55371 41.32028 29459 ft 500 kts 54°
2026-05-04 20:02 10.57374 41.34913 29654 ft 499 kts 54°
2026-05-04 20:02 10.59374 41.37795 29822 ft 499 kts 54°
2026-05-04 20:02 10.61303 41.40736 29967 ft 500 kts 58°
2026-05-04 20:02 10.63108 41.43751 30133 ft 499 kts 59°
2026-05-04 20:03 10.64858 41.46797 30291 ft 499 kts 59°
2026-05-04 20:03 10.66581 41.49855 30472 ft 497 kts 60°
2026-05-04 20:03 10.68291 41.52908 30630 ft 497 kts 60°
2026-05-04 20:03 10.70001 41.55958 30807 ft 496 kts 59°
2026-05-04 20:04 10.71713 41.58997 31017 ft 494 kts 60°
2026-05-04 20:04 10.73425 41.62027 31181 ft 493 kts 60°
2026-05-04 20:04 10.75140 41.65055 31269 ft 494 kts 60°
2026-05-04 20:04 10.76859 41.68087 31416 ft 494 kts 60°
2026-05-04 20:05 10.78579 41.71119 31578 ft 493 kts 60°
2026-05-04 20:05 10.80271 41.74102 31729 ft 493 kts 60°
2026-05-04 20:05 10.81982 41.77120 31887 ft 492 kts 60°
2026-05-04 20:05 10.83690 41.80132 32071 ft 491 kts 60°
2026-05-04 20:06 10.85391 41.83135 32259 ft 489 kts 60°
2026-05-04 20:06 10.87086 41.86128 32431 ft 488 kts 60°
2026-05-04 20:06 10.88785 41.89129 32567 ft 488 kts 60°
2026-05-04 20:06 10.90476 41.92116 32715 ft 488 kts 60°